パンスターズ彗星

253P/PanSTARRS (2018)

English version
Home page
Updated on May 20, 2019

---------------------------------------------------------------------

・ プロフィール

・ 軌道要素

Epoch 2018 May 2.0 TT = JDT 2458240.5
T 2018 May 7.72982 TT                                   MPCW
q   2.0367498            (2000.0)            P               Q
n   0.15252348     Peri.  230.72585     +0.95157164     -0.30380518
a   3.4693244      Node   146.88319     +0.30186562     +0.89436970
e   0.4129261      Incl.    4.94041     +0.05821129     +0.32833709
P   6.46
From 345 observations 1998 Sept. 14-2018 Oct. 6, mean residual 0".6.
     Nongravitational parameters A1 = +1.25, A2 = -0.0167.

・ 光度変化

        m1 = 12.0 + 5 logΔ + 15.0 log r

---------------------------------------------------------------------

軌道要素はM.P.E.C. 2018-U70に掲載されたものです。
光度グラフはComet for Windowsで作成したものです。

---------------------------------------------------------------------

Copyright(C) Seiichi Yoshida (comet@aerith.net). All rights reserved.